Demopolis Municipal Airport, AL

9:29 AM CST on December 11, 2019 (GMT -0600)
Demopolis Municipal Airport

Weather History for KDYA - October, 2019

Change the Weather History Date:

Tuesday, October 22, 2019

  Actual Average (WUND) Record (WUND)
Temperature  
Mean Temperature 59 °F -  
Max Temperature 72 °F - - (-1)
Min Temperature 45 °F - - (-1)
Degree Days  
Heating Degree Days 6    
Growing Degree Days 9 (Base 50)    
Moisture  
Dew Point 47 °F    
Average Humidity 65    
Maximum Humidity 100    
Minimum Humidity 23    
Precipitation  
Precipitation 0.00 in - - ()
Sea Level Pressure  
Sea Level Pressure 30.06 in    
Wind  
Wind Speed 2 mph ()    
Max Wind Speed 16 mph    
Max Gust Speed 26 mph    
Visibility 9.4 miles    
Events Fog , Rain    
Averages and records for this station are not official NWS values.
T = Trace of Precipitation, MM = Missing Value Source: Averaged Metar Reports

Daily Weather History Graph

Daily Weather History Graph

Search for Another Location

Airport or City:

Astronomy

Oct. 22, 2019 Rise Set
Actual Time 7:00 AM CDT 6:11 PM CDT
Civil Twilight 6:35 AM CDT 6:36 PM CDT
Nautical Twilight 6:07 AM CDT 7:04 PM CDT
Astronomical Twilight 5:38 AM CDT 7:33 PM CDT
Moon 12:38 AM CDT (10/22) 2:54 PM CDT (10/22)
Length of Visible Light 12h 00m
Length of Day
11h 10m
Last Quarter, 37% of the Moon is Illuminated
Oct 22
Last Quarter
Oct 27
New
Nov 4
First Quarter
Nov 12
Full
Nov 19
Last Quarter

Hourly Weather History & Observations

Time (CDT) Temp. Dew Point Humidity Pressure Visibility Wind Dir Wind Speed Gust Speed Precip Events Conditions
12:15 AM 66.2 °F 65.5 °F 98% 29.91 in 10.0 mi Calm Calm - N/A Rain Light Rain
12:35 AM 65.7 °F 64.9 °F 98% 29.91 in 10.0 mi Calm Calm - N/A   Overcast
12:55 AM 65.7 °F 64.9 °F 98% 29.92 in 10.0 mi Calm Calm - N/A   Overcast
1:15 AM 65.5 °F 64.9 °F 98% 29.92 in 10.0 mi Calm Calm - N/A   Overcast
1:35 AM 65.3 °F 64.6 °F 98% 29.94 in 10.0 mi Calm Calm - N/A   Overcast
2:15 AM 64.9 °F 63.9 °F 96% 29.95 in 10.0 mi Calm Calm - N/A   Overcast
2:35 AM 64.8 °F 63.7 °F 96% 29.95 in 10.0 mi Calm Calm - N/A   Overcast
2:55 AM 64.4 °F 63.3 °F 96% 29.96 in 10.0 mi Calm Calm - N/A   Overcast
3:15 AM 64.0 °F 63.0 °F 96% 29.97 in 10.0 mi Calm Calm - N/A   Overcast
3:35 AM 63.5 °F 62.6 °F 97% 29.97 in 10.0 mi Calm Calm - N/A   Scattered Clouds
3:55 AM 63.1 °F 62.1 °F 96% 29.98 in 10.0 mi WNW 6.9 mph - N/A   Mostly Cloudy
4:35 AM 61.5 °F 59.2 °F 92% 29.98 in 10.0 mi Calm Calm - N/A   Clear
4:55 AM 60.8 °F 58.6 °F 93% 29.99 in 10.0 mi Calm Calm - N/A   Clear
5:15 AM 59.9 °F 58.1 °F 94% 30.00 in 10.0 mi Calm Calm - N/A   Clear
5:35 AM 59.0 °F 57.6 °F 95% 30.00 in 10.0 mi Calm Calm - N/A   Clear
5:55 AM 58.3 °F 57.2 °F 96% 30.02 in 10.0 mi Calm Calm - N/A   Clear
6:15 AM 58.1 °F 57.2 °F 97% 30.03 in 10.0 mi Calm Calm - N/A   Clear
6:35 AM 58.1 °F 57.2 °F 97% 30.03 in 10.0 mi Calm Calm - N/A   Clear
6:55 AM 55.9 °F 55.0 °F 97% 30.04 in 7.0 mi Calm Calm - N/A   Clear
7:15 AM 54.3 °F 54.0 °F 99% 30.04 in 0.8 mi Calm Calm - N/A   Mostly Cloudy
7:35 AM 55.0 °F 55.0 °F 100% 30.05 in 3.0 mi Calm Calm - N/A   Mostly Cloudy
8:15 AM - - N/A% 30.07 in 0.2 mi Calm Calm - N/A Fog Fog
8:35 AM - - N/A% 30.07 in 1.5 mi Calm Calm - N/A   Overcast
8:55 AM - - N/A% 30.08 in 10.0 mi Calm Calm - N/A   Overcast
9:15 AM 59.2 °F 59.2 °F 100% 30.09 in 10.0 mi Calm Calm - N/A   Scattered Clouds
9:35 AM 60.6 °F 58.5 °F 93% 30.09 in 10.0 mi Calm Calm - N/A   Clear
9:55 AM 63.0 °F 54.9 °F 75% 30.10 in 10.0 mi Calm Calm - N/A   Clear
10:35 AM 66.2 °F 51.1 °F 58% 30.10 in 10.0 mi Calm Calm - N/A   Clear
10:55 AM 67.1 °F 48.7 °F 52% 30.10 in 10.0 mi Calm Calm - N/A   Clear
11:15 AM 68.2 °F 45.7 °F 44% 30.10 in 10.0 mi Calm Calm - N/A   Clear
11:35 AM 68.9 °F 41.7 °F 37% 30.10 in 10.0 mi Calm Calm - N/A   Clear
11:55 AM 69.8 °F 41.2 °F 35% 30.10 in 10.0 mi Calm Calm - N/A   Clear
12:15 PM 70.2 °F 36.3 °F 29% 30.10 in 10.0 mi WNW 10.4 mph 18.4 mph N/A   Clear
12:35 PM 71.1 °F 37.2 °F 29% 30.09 in 10.0 mi West 13.8 mph 20.7 mph N/A   Clear
12:55 PM 71.4 °F 33.6 °F 25% 30.09 in 10.0 mi West 16.1 mph 21.9 mph N/A   Clear
1:15 PM 71.8 °F 35.2 °F 26% 30.08 in 10.0 mi WNW 16.1 mph 24.2 mph N/A   Clear
1:35 PM 71.6 °F 33.6 °F 25% 30.08 in 10.0 mi WNW 11.5 mph 26.5 mph N/A   Clear
1:55 PM 71.4 °F 35.1 °F 26% 30.07 in 10.0 mi West 12.7 mph 20.7 mph N/A   Clear
2:15 PM 71.8 °F 36.3 °F 27% 30.07 in 10.0 mi Calm Calm - N/A   Clear
2:35 PM 71.6 °F 34.7 °F 26% 30.06 in 10.0 mi NW 11.5 mph 21.9 mph N/A   Clear
2:55 PM 72.0 °F 35.8 °F 27% 30.06 in 10.0 mi WNW 11.5 mph 19.6 mph N/A   Clear
3:15 PM 72.1 °F 35.6 °F 26% 30.06 in 10.0 mi WNW 12.7 mph 18.4 mph N/A   Clear
3:35 PM 72.1 °F 34.9 °F 26% 30.06 in 10.0 mi Calm Calm - N/A   Clear
3:55 PM 72.3 °F 33.8 °F 24% 30.06 in 10.0 mi West 10.4 mph 18.4 mph N/A   Clear
4:15 PM 71.8 °F 32.9 °F 24% 30.06 in 10.0 mi West 8.1 mph - N/A   Clear
4:35 PM 71.1 °F 31.8 °F 23% 30.06 in 10.0 mi West 12.7 mph 20.7 mph N/A   Clear
4:55 PM 70.7 °F 32.5 °F 24% 30.06 in 10.0 mi West 9.2 mph - N/A   Clear
5:15 PM 69.8 °F 32.2 °F 25% 30.07 in 10.0 mi West 10.4 mph - N/A   Clear
5:35 PM 68.7 °F 34.7 °F 29% 30.07 in 10.0 mi Calm Calm - N/A   Clear
5:55 PM 66.7 °F 35.6 °F 32% 30.08 in 10.0 mi WNW 6.9 mph - N/A   Clear
6:15 PM 64.6 °F 36.1 °F 35% 30.08 in 10.0 mi Calm Calm - N/A   Clear
6:35 PM 62.6 °F 38.7 °F 41% 30.09 in 10.0 mi Calm Calm - N/A   Clear
6:55 PM 61.2 °F 39.7 °F 45% 30.10 in 10.0 mi Calm Calm - N/A   Clear
7:15 PM 60.1 °F 41.0 °F 49% 30.10 in 10.0 mi Calm Calm - N/A   Clear
7:35 PM 59.9 °F 41.0 °F 50% 30.11 in 10.0 mi Calm Calm - N/A   Clear
7:55 PM 54.9 °F 44.6 °F 68% 30.11 in 10.0 mi Calm Calm - N/A   Clear
8:15 PM 54.5 °F 45.5 °F 72% 30.12 in 10.0 mi Calm Calm - N/A   Clear
8:55 PM 55.4 °F 42.8 °F 63% 30.13 in 10.0 mi Calm Calm - N/A   Clear
9:15 PM 50.9 °F 44.1 °F 77% 30.14 in 10.0 mi Calm Calm - N/A   Clear
9:35 PM 50.4 °F 43.7 °F 78% 30.15 in 10.0 mi Calm Calm - N/A   Clear
9:55 PM 50.4 °F 44.1 °F 79% 30.15 in 10.0 mi Calm Calm - N/A   Clear
10:15 PM 48.9 °F 43.5 °F 82% 30.16 in 10.0 mi Calm Calm - N/A   Clear
10:35 PM 47.5 °F 43.7 °F 87% 30.16 in 10.0 mi Calm Calm - N/A   Clear
10:55 PM 47.1 °F 43.7 °F 88% 30.16 in 10.0 mi Calm Calm - N/A   Clear
11:35 PM 46.4 °F 43.7 °F 90% 30.15 in 10.0 mi Calm Calm - N/A   Clear
11:55 PM 45.9 °F 43.5 °F 92% 30.15 in 10.0 mi Calm Calm - N/A   Clear